Home   Weather   Cascais   Past weeks
Flag for Portugal

Past Weather in Cascais, Lisbon, Portugal — Yesterday and Last 2 Weeks

Now
68 °F

Passing clouds.


Feels Like: 68 °F
Forecast: 69 / 62 °F
Wind: 9 mph from Northwest

Location: Lisbon Portela Airport

Current Time: Sep 22, 2019 at 7:30:17 pm

Latest Report: Sep 22, 2019 at 7:00 pm


Visibility: N/A

Pressure: 30.09 "Hg

Humidity: 64%

Dew Point: 55 °F

Location of CascaisLocation

Past Weather in Cascais — Graph

°F

Cascais Temperature Yesterday

Maximum temperature yesterday: 73 °F (at 12:30 pm)
Minimum temperature yesterday: 63 °F (at 9:30 pm)
Average temperature yesterday: 67 °F

High & Low Weather Summary for the Past Weeks

 TemperatureHumidityPressure
High91 °F (Sep 12, 4:30 pm)100% (Sep 21, 1:30 am)30.24 "Hg (Sep 21, 1:30 am)
Low59 °F (Sep 10, 6:30 am)20% (Sep 13, 2:00 pm)29.80 "Hg (Sep 21, 5:30 pm)
Average71 °F62%30.05 "Hg
* Reported Sep 7 6:00 pm — Sep 22 6:30 pm, Cascais. Weather by CustomWeather, © 2019

Note: Actual official high and low records may vary slightly from our data, if they occured in-between our weather recording intervals... More about our weather records

Advertising

Cascais Weather History for the Previous 24 Hours

Scroll right to see more
 ConditionsComfort  
Time TempWeatherWind HumidityBarometerVisibility
6:30 pm
Sun, Sep 22
70 °FPassing clouds.9 mph60%30.07 "HgN/A
6:00 pm70 °FPassing clouds.9 mph57%30.07 "HgN/A
5:30 pm70 °FPassing clouds.12 mph53%30.07 "HgN/A
5:00 pm70 °FPassing clouds.9 mph57%30.07 "HgN/A
4:30 pm72 °FPassing clouds.7 mph53%30.07 "HgN/A
4:00 pm72 °FPassing clouds.8 mph50%30.07 "HgN/A
3:30 pm70 °FScattered clouds.8 mph57%30.07 "HgN/A
3:00 pm70 °FPassing clouds.9 mph57%30.07 "HgN/A
2:30 pm72 °FPassing clouds.9 mph53%30.07 "HgN/A
2:00 pm70 °FPassing clouds.8 mph53%30.07 "HgN/A
1:30 pm70 °FScattered clouds.10 mph60%30.07 "HgN/A
1:00 pm70 °FScattered clouds.9 mph60%30.07 "HgN/A
12:30 pm70 °FPassing clouds.7 mph60%30.07 "HgN/A
12:00 pm70 °FPassing clouds.6 mph64%30.07 "HgN/A
11:30 am68 °FPassing clouds.7 mph69%30.07 "HgN/A
11:00 am68 °FPassing clouds.6 mph73%30.07 "HgN/A
10:30 am66 °FScattered clouds.5 mph83%30.04 "HgN/A
10:00 am66 °FPassing clouds.5 mph83%30.04 "HgN/A
9:30 am64 °FScattered clouds.5 mph94%30.04 "HgN/A
9:00 am64 °FLight rain. Partly sunny.5 mph94%30.01 "HgN/A
8:30 am63 °FPartly sunny.2 mph100%30.01 "HgN/A
8:00 am61 °FScattered clouds.3 mph100%30.01 "HgN/A
7:30 am61 °FPassing clouds.2 mph100%29.98 "HgN/A
7:00 am61 °FPassing clouds.5 mph100%29.98 "HgN/A
6:30 am61 °FPassing clouds.5 mph100%29.98 "HgN/A
6:00 am61 °FPassing clouds.2 mph100%29.98 "HgN/A
5:30 am61 °FPassing clouds.5 mph100%29.95 "HgN/A
5:00 am61 °FFog.6 mph100%29.95 "HgN/A
4:30 am61 °FFog.3 mph94%29.95 "HgN/A
4:00 am61 °FFog.2 mph100%29.95 "HgN/A
3:30 am61 °FPassing clouds.3 mph100%29.95 "HgN/A
3:00 am61 °FPassing clouds.2 mph100%29.95 "HgN/A
2:30 am63 °FPassing clouds.5 mph94%29.95 "HgN/A
2:00 am63 °FPassing clouds.5 mph94%29.95 "HgN/A
1:30 am61 °FPassing clouds.6 mph100%29.95 "HgN/A
1:00 am63 °FPassing clouds.6 mph94%29.95 "HgN/A
12:30 am63 °FPassing clouds.7 mph94%29.95 "HgN/A
12:00 am63 °FPassing clouds.5 mph94%29.95 "HgN/A
11:30 pm
Sat, Sep 21
63 °FPassing clouds.6 mph94%29.95 "HgN/A
11:00 pm63 °FPassing clouds.5 mph94%29.92 "HgN/A
10:30 pm63 °FPassing clouds.5 mph94%29.92 "HgN/A
10:00 pm63 °FPassing clouds.3 mph94%29.92 "HgN/A
9:30 pm63 °FPassing clouds.5 mph94%29.92 "HgN/A
9:00 pm64 °FPassing clouds.5 mph88%29.89 "HgN/A
8:30 pm64 °FPassing clouds.6 mph88%29.86 "HgN/A
8:00 pm64 °FPassing clouds.8 mph88%29.86 "HgN/A
7:30 pm64 °FPartly sunny.10 mph88%29.83 "HgN/A
7:00 pm64 °FBroken clouds.7 mph94%29.83 "HgN/A
Weather by CustomWeather, © 2019

See weather overview